Simultaneous Nadir Overpasses (SNOs) Predictions

Prediction of SNOs between NPP and TERRA Satellite Orbit:

Table of predicted SNOs for the next 14.0 days since TLE Epoch: 2/15/2013
Index Date (NPP) Time (NPP) Lat,Lon (NPP) SZA (NPP ) Date (TERRA) Time (TERRA) Lat,Lon (TERRA) SZA (TERRA ) Distance(km) Time Diff (sec)
1 02/16/2013 20:02:14 68.18,-122.17 80.21 02/16/2013 20:02:42 68.16,-122.22 80.18 2.84 28
2 02/16/2013 20:52:55 -68.03, 45.33 99.96 02/16/2013 20:52:12 -68.05, 45.29 99.93 2.89 43
3 02/19/2013 11:28:35 -68.65,-174.33 100.24 02/19/2013 11:29:46 -68.56,-173.53 100.37 34.04 71
4 02/19/2013 12:19:12 68.16, -6.38 79.24 02/19/2013 12:19:18 68.18, -6.35 79.25 2.92 6
5 02/19/2013 13:09:53 -68.01, 161.12 100.94 02/19/2013 13:08:49 -68.02, 161.10 100.91 2.01 64
6 02/22/2013 03:45:25 -68.25, -58.05 101.63 02/22/2013 03:46:31 -68.26, -58.07 101.63 1.38 66
7 02/22/2013 04:36:09 68.13, 109.41 78.24 02/22/2013 04:35:58 68.15, 109.45 78.26 2.68 11
8 02/22/2013 05:26:45 -67.71, -82.75 102.21 02/22/2013 05:25:33 -67.78, -83.35 102.12 26.46 72
9 02/24/2013 20:02:23 -68.22, 57.75 102.65 02/24/2013 20:03:16 -68.24, 57.72 102.64 2.51 53
10 02/24/2013 20:53:07 68.11,-134.80 77.23 02/24/2013 20:52:43 68.13,-134.76 77.25 3.17 24
11 02/24/2013 21:43:35 -67.25, 33.57 103.68 02/24/2013 21:42:26 -67.32, 31.94 103.55 70.14 69
12 02/27/2013 12:19:22 -68.24, 173.49 103.63 02/27/2013 12:20:05 -68.22, 173.50 103.66 1.76 43
13 02/27/2013 13:10:05 68.08, -19.00
